Tracking 31027 objects as of 19-Jul-2025
HD Live streaming from Space Station
objects crossing your sky now

ARIANE 2 DEB

Track ARIANE 2 DEB now!


NORAD ID: 27650
Int'l Code: 1989-006AE
Perigee: 411.5 km
Apogee: 34,938.8 km
Inclination: 8.6 °
Period: 618.5 minutes
Semi major axis: 24046 km
RCS: 0.1719 m2 (medium)
Launch date: January 27, 1989
Source: France (FR)
Launch site: FRENCH GUIANA (FRGUI)

Note: This is SATELLITE DEBRIS
Your satellite tracking list
CREW DRAGON DEMO-2 DEB
Track 1 satellite(s)




NASA's NSSDC Master Catalog

Two Line Element Set (TLE):
1 27650U 89006AE  25198.19896774  .00000239  00000-0  62248-3 0  9998
2 27650   8.5536  30.5472 7179391 162.0669 250.2741  2.32828059200357
Source of the keplerian elements: AFSPC